This demonstration page uses our WeatherBlox Daily Observations layout. Learn more.

Left ArrowRight Arrow

41.86663, -103.66717

Hourly Observations for November 12, 2019

Temp ( °F °C ) Dew Point ( °F °C ) Humidity (%) Winds ( mph kmh ) Pressure ( in mb ) Visibility ( mi km ) Precip ( " mm )
12:53 am 00:53 Clear -1 -18.3 -5 -20.6 82 82 Calm 30.57 1035 10 16 0.00 0.00
1:53 am 01:53 Clear 0 -17.8 -4 -20 83 83 NNW 5 7 30.53 1034 10 16 0.00 0.00
2:53 am 02:53 Clear -1 -18.3 -5 -20.6 82 82 NNW 3 6 30.51 1033 10 16 0.00 0.00
3:53 am 03:53 Clear -2 -18.9 -5 -20.6 87 87 NW 5 7 30.47 1032 10 16 0.00 0.00
4:53 am 04:53 Clear -2 -18.9 -5 -20.6 87 87 N 3 6 30.45 1031 10 16 0.00 0.00
5:53 am 05:53 Clear -3 -19.4 -7 -21.7 82 82 NW 3 6 30.44 1031 10 16 0.00 0.00
6:53 am 06:53 Sunny -2 -18.9 -6 -21.1 83 83 NW 5 7 30.43 1030 10 16 0.00 0.00
7:53 am 07:53 Sunny 4 -15.6 1 -17.2 88 88 NW 6 9 30.40 1030 10 16 0.00 0.00
8:53 am 08:53 Sunny 15 -9.4 12 -11.1 88 88 Calm 30.34 1028 10 16 0.00 0.00
9:53 am 09:53 Sunny 27 -2.8 17 -8.3 66 66 Calm 30.27 1025 10 16 0.00 0.00
10:53 am 10:53 Sunny 34 1.1 21 -6.1 59 59 Calm 30.22 1023 10 16 0.00 0.00
11:53 am 11:53 Sunny 42 5.6 22 -5.6 45 45 Calm 30.17 1022 10 16 0.00 0.00
12:53 pm 12:53 Sunny 48 8.9 23 -5 37 37 NNW 6 9 30.12 1020 10 16 0.00 0.00
1:53 pm 13:53 Sunny 53 11.7 21 -6.1 28 28 WNW 5 7 30.07 1018 10 16 0.00 0.00
2:53 pm 14:53 Sunny 56 13.3 20 -6.7 24 24 WNW 6 9 30.04 1017 10 16 0.00 0.00
3:53 pm 15:53 Sunny 51 10.6 23 -5 33 33 S 3 6 30.04 1017 10 16 0.00 0.00
4:53 pm 16:53 Clear 49 9.4 20 -6.7 32 32 W 6 9 30.04 1017 10 16 0.00 0.00
5:53 pm 17:53 Clear 44 6.7 21 -6.1 40 40 Calm 30.04 1017 10 16 0.00 0.00
6:53 pm 18:53 Clear 41 5 21 -6.1 45 45 NNW 5 7 30.03 1017 10 16 0.00 0.00
7:53 pm 19:53 Clear 39 3.9 22 -5.6 50 50 N 5 7 30.01 1016 10 16 0.00 0.00
8:53 pm 20:53 Clear 36 2.2 24 -4.4 62 62 NNW 8 13 29.97 1015 10 16 0.00 0.00
9:53 pm 21:53 Clear 38 3.3 24 -4.4 57 57 Calm 29.92 1013 10 16 0.00 0.00
10:53 pm 22:53 Partly Cloudy 38 3.3 26 -3.3 62 62 Calm 29.86 1011 10 16 0.00 0.00
11:53 pm 23:53 Mostly Cloudy 38 3.3 27 -2.8 65 65 VRB 3 6 29.82 1010 10 16 0.00 0.00

Powered by AerisWeather